Waarnemingen

Advertentie
Mijn weer
Ölands Södra Udde, Zweden (2644): temperatuur & dauwpunt: 14.01.2021 23:00:00 - 20.01.2021 23:00:00 (CET)Ölands Södra Udde, Zweden (2644): windsnelheid & windstoten: 14.01.2021 23:00:00 - 20.01.2021 23:00:00 (CET)Ölands Södra Udde, Zweden (2644): windrichting: 14.01.2021 23:00:00 - 20.01.2021 23:00:00 (CET)Ölands Södra Udde, Zweden (2644): luchtdruk: 14.01.2021 23:00:00 - 20.01.2021 23:00:00 (CET)Ölands Södra Udde, Zweden (2644): zicht: 14.01.2021 23:00:00 - 20.01.2021 23:00:00 (CET)Ölands Södra Udde, Zweden (2644): neerslag: 14.01.2021 23:00:00 - 20.01.2021 23:00:00 (CET)
Datum & Tijd tt [°C] td [°C] ff [km/u] ff [kn] fx [km/u] fx [kn] dd ppp [hPa] vv [km] rr [mm]
20.01.2021 23:00:00 5,8 4,4 25 14 38 21 ZW 995,6 25 0,0
20.01.2021 22:00:00 5,7 4,7 24 13 37 20 ZW 995,6 18 0,0
20.01.2021 21:00:00 5,4 5,0 25 14 41 22 ZW 995,7 10 0,3
20.01.2021 20:00:00 5,2 4,9 22 12 36 19 ZW 995,8 4,6 0,1
20.01.2021 19:00:00 5,2 4,8 26 14 39 21 ZW 995,7 10 0,4
20.01.2021 18:00:00 5,0 4,7 26 14 37 20 ZZW 995,8 9 2,3
20.01.2021 17:00:00 4,9 4,6 26 14 38 20 ZZW 995,9 4,5 0,6
20.01.2021 16:00:00 4,9 4,6 26 14 39 21 ZZW 995,8 13 0,0
20.01.2021 15:00:00 5,0 4,7 26 14 35 19 ZZW 995,8 13 0,6
20.01.2021 14:00:00 5,1 5,0 23 12 33 18 ZZW 996,3 7 1,3
20.01.2021 13:00:00 5,3 5,2 22 12 32 18 ZZW 996,7 5 1,9
20.01.2021 12:00:00 5,5 5,2 19 10 34 19 ZW 997,2 6 1,6
20.01.2021 11:00:00 5,5 5,4 19 10 38 20 ZZW 997,4 8 1,7
20.01.2021 10:00:00 4,2 4,0 31 17 38 20 ZZO 997,6 2,9 0,7
20.01.2021 09:00:00 4,1 3,7 29 15 36 19 ZZO 998,1 11 0,8
20.01.2021 08:00:00 3,8 3,2 29 15 35 19 ZZO 998,5 6 0,8
20.01.2021 07:00:00 3,6 2,6 29 15 35 19 Z 998,7 18 0,8
20.01.2021 06:00:00 3,5 2,2 26 14 32 17 Z 999,2 28 0,8
20.01.2021 05:00:00 3,6 2,3 26 14 31 17 Z 999,7 17 0,7
20.01.2021 04:00:00 3,5 2,3 24 13 33 18 Z 1000,0 12 0,4
20.01.2021 03:00:00 3,5 1,9 25 14 31 17 Z 1000,1 23 0,0
20.01.2021 02:00:00 3,5 1,9 24 13 35 19 Z 1000,5 27 0,0
20.01.2021 01:00:00 3,5 1,9 27 15 35 19 Z 1001,0 44 -
20.01.2021 00:00:00 3,3 2,0 29 16 36 20 Z 1001,2 17 0,0
19.01.2021 23:00:00 3,3 2,0 32 17 38 21 Z 1001,5 23 0,2
19.01.2021 22:00:00 3,1 1,9 31 17 40 22 Z 1001,7 28 0,4
19.01.2021 21:00:00 3,0 1,8 33 18 41 22 Z 1001,9 14 0,9
19.01.2021 20:00:00 3,5 2,3 32 18 39 21 Z 1002,1 13 0,5
19.01.2021 19:00:00 3,6 2,6 28 15 35 19 Z 1002,5 11 0,4
19.01.2021 18:00:00 3,5 2,3 26 14 30 16 Z 1002,8 14 0,5
19.01.2021 17:00:00 3,3 2,1 15 8 24 13 Z 1003,3 15 0,6
19.01.2021 16:00:00 3,3 2,2 18 10 31 17 Z 1003,6 19 0,0
19.01.2021 15:00:00 3,6 2,1 14 8 21 11 Z 1003,8 50 0,0
19.01.2021 14:00:00 3,7 2,2 16 9 23 12 Z 1004,2 20 0,0
19.01.2021 13:00:00 3,1 2,4 20 11 25 14 ZZO 1005,0 4,1 0,0
19.01.2021 12:00:00 2,7 1,8 22 12 26 14 ZZO 1005,9 4,0 0,0
19.01.2021 11:00:00 2,0 1,3 23 12 29 16 ZZO 1006,8 3,7 0,0
19.01.2021 10:00:00 1,7 0,8 24 13 34 18 ZZO 1007,5 5 0,0
19.01.2021 09:00:00 1,1 0,5 28 15 34 19 ZZO 1007,8 2,6 0,4
19.01.2021 08:00:00 1,1 0,2 29 15 35 19 ZZO 1008,2 3,9 0,0
19.01.2021 07:00:00 1,7 -0,1 26 14 34 18 ZZO 1008,6 9 0,0
19.01.2021 06:00:00 1,6 -0,2 25 14 33 18 Z 1009,0 9 0,0
19.01.2021 05:00:00 1,6 -0,6 25 13 31 17 Z 1009,3 10 0,0
19.01.2021 04:00:00 1,7 -0,3 25 13 32 17 Z 1010,3 12 0,0
19.01.2021 03:00:00 1,7 -0,2 27 14 33 18 Z 1010,3 13 0,0
19.01.2021 02:00:00 1,5 -0,4 27 14 35 19 Z 1010,9 13 0,0
19.01.2021 01:00:00 1,7 -0,7 28 15 35 19 Z 1011,4 15 0,0
19.01.2021 00:00:00 1,4 -1,0 27 15 35 19 Z 1012,0 17 0,0
18.01.2021 23:00:00 1,4 -2,0 29 15 37 20 Z 1012,6 29 0,0
18.01.2021 22:00:00 1,2 -3,3 30 16 41 22 Z 1013,0 34 0,0
18.01.2021 21:00:00 1,3 -4,0 30 16 39 21 ZZW 1013,4 50 0,0
18.01.2021 20:00:00 1,3 -3,8 26 14 37 20 ZZW 1013,6 50 0,0
18.01.2021 19:00:00 1,3 -3,6 22 12 34 18 ZZW 1013,9 45 0,0
18.01.2021 18:00:00 1,2 -4,4 27 15 37 20 ZZW 1014,1 50 0,0
18.01.2021 17:00:00 1,3 -4,0 26 14 37 20 ZZW 1014,8 50 0,0
18.01.2021 16:00:00 1,3 -4,8 26 14 35 19 ZZW 1015,2 50 0,0
18.01.2021 15:00:00 1,2 -4,4 22 12 34 19 ZW 1015,5 42 0,0
18.01.2021 14:00:00 1,4 -3,9 25 13 34 18 ZW 1016,0 50 0,0
18.01.2021 13:00:00 1,0 -2,1 8 4 12 7 WZW 1016,5 50 0,0
18.01.2021 12:00:00 0,4 -1,8 10 5 16 8 ZW 1017,1 9 0,1
18.01.2021 11:00:00 0,3 -1,9 10 5 13 7 ZZW 1017,6 12 0,1
18.01.2021 10:00:00 0,4 -2,9 0 0 9 5 N 1017,8 16 0,0
18.01.2021 09:00:00 0,5 -4,1 6 3 9 5 W 1018,0 50 0,0
18.01.2021 08:00:00 0,4 -4,8 7 4 14 8 W 1018,1 50 0,0
18.01.2021 07:00:00 -0,1 -3,3 6 3 9 5 NW 1017,9 50 0,0
18.01.2021 06:00:00 0,1 -2,9 0 0 9 5 N 1018,2 46 0,0
18.01.2021 05:00:00 0,3 -4,2 5 3 11 6 ZZW 1018,7 18 0,0
18.01.2021 04:00:00 0,4 -5,2 5 3 11 6 ZZW 1018,8 40 0,0
18.01.2021 03:00:00 -0,1 -4,5 5 3 7 4 Z 1019,0 50 0,0
18.01.2021 02:00:00 -1,1 -3,8 0 0 1 1 N 1019,4 44 0,0
18.01.2021 01:00:00 -0,4 -6,6 0 0 6 3 N 1019,9 50 0,0
18.01.2021 00:00:00 -2,0 -5,7 0 0 4 2 N 1020,2 50 0,0
17.01.2021 23:00:00 -2,0 -7,7 0 0 4 2 N 1020,5 50 0,0
17.01.2021 22:00:00 -2,1 -5,8 0 0 7 4 N 1020,7 50 0,0
17.01.2021 21:00:00 -1,9 -5,4 5 3 9 5 ONO 1020,8 50 0,0
17.01.2021 20:00:00 -1,5 -5,0 7 4 10 6 NO 1021,1 50 0,0
17.01.2021 19:00:00 -1,1 -4,6 0 0 0 0 N 1021,4 50 0,0
17.01.2021 18:00:00 -2,2 -5,5 4 2 12 6 NNO 1021,4 50 0,0
17.01.2021 17:00:00 -1,9 -5,1 9 5 12 6 NNO 1021,1 50 0,0
17.01.2021 16:00:00 -1,8 -4,6 8 4 9 5 NO 1020,9 50 0,0
17.01.2021 15:00:00 -1,1 -4,8 0 0 3 2 N 1020,9 46 0,0
17.01.2021 14:00:00 -1,0 -3,8 0 0 5 3 N 1020,9 40 0,0
17.01.2021 13:00:00 -1,0 -3,8 0 0 7 4 N 1021,1 36 0,0
17.01.2021 12:00:00 -1,0 -4,3 0 0 8 4 N 1021,2 42 0,0
17.01.2021 11:00:00 -1,6 -4,6 4 2 12 6 ONO 1021,2 43 0,0
17.01.2021 10:00:00 -1,4 -4,5 0 0 7 4 N 1021,0 15 0,0
17.01.2021 09:00:00 -1,6 -4,4 6 3 14 8 N 1020,3 25 0,0
17.01.2021 08:00:00 -1,7 -4,5 10 5 13 7 N 1020,0 50 0,0
17.01.2021 07:00:00 -1,7 -4,9 8 4 14 8 N 1019,5 32 -
17.01.2021 06:00:00 -1,9 -5,1 13 7 15 8 NNO 1019,2 50 -
17.01.2021 05:00:00 -1,8 -4,8 8 4 14 8 NNO 1019,1 50 0,0
17.01.2021 04:00:00 -0,8 -7,2 10 6 16 9 NO 1019,0 50 0,0
17.01.2021 03:00:00 -0,2 -6,0 14 8 19 10 O 1019,0 50 0,0
17.01.2021 02:00:00 -0,1 -5,5 13 7 19 11 O 1019,1 50 0,0
17.01.2021 01:00:00 -0,3 -4,4 11 6 16 9 O 1019,1 28 0,0
17.01.2021 00:00:00 -0,3 -4,7 9 5 20 11 ONO 1019,0 44 0,0
16.01.2021 23:00:00 0,0 -4,6 18 10 24 13 ONO 1019,0 50 0,0
16.01.2021 22:00:00 -0,3 -4,2 14 7 24 13 NO 1018,7 50 0,0
16.01.2021 21:00:00 -0,3 -3,8 17 9 28 15 NO 1018,5 50 0,0
16.01.2021 20:00:00 -0,9 -1,6 13 7 21 12 N 1018,5 50 0,0
16.01.2021 19:00:00 -1,5 -1,9 18 10 29 16 N 1018,3 10 0,0
16.01.2021 18:00:00 -1,6 -2,3 22 12 35 19 N 1018,2 3,6 0,0
16.01.2021 17:00:00 -1,5 -2,9 27 14 41 22 N 1017,8 50 0,0
16.01.2021 16:00:00 -1,3 -3,0 30 16 41 22 N 1017,5 50 0,0
16.01.2021 15:00:00 -1,5 -3,2 31 17 40 22 N 1017,4 50 0,0
16.01.2021 14:00:00 -1,7 -3,7 30 16 38 21 N 1017,1 50 0,0
16.01.2021 13:00:00 -2,1 -4,6 31 17 39 21 N 1017,3 50 0,0
16.01.2021 12:00:00 -2,2 -4,7 32 18 45 24 N 1017,2 50 0,0
16.01.2021 11:00:00 -1,8 -4,6 35 19 54 29 N 1017,6 50 0,0
16.01.2021 10:00:00 -1,5 -4,8 40 22 51 27 NNW 1018,2 50 0,0
16.01.2021 09:00:00 -1,9 -5,1 39 21 50 27 NNW 1018,3 50 0,0
16.01.2021 08:00:00 -2,5 -6,0 37 20 46 25 NNW 1018,8 50 0,0
16.01.2021 07:00:00 -3,4 -6,4 32 18 41 22 NNW 1019,6 50 0,0
16.01.2021 06:00:00 -4,4 -7,2 26 14 31 17 WNW 1020,3 50 0,0
16.01.2021 05:00:00 -4,4 -6,4 24 13 34 19 NNW 1021,3 50 0,0
16.01.2021 04:00:00 -4,7 -6,5 23 12 32 17 N 1021,8 50 0,0
16.01.2021 03:00:00 -4,5 -6,2 24 13 32 17 N 1022,6 50 0,0
16.01.2021 02:00:00 -4,3 -6,1 25 14 37 20 N 1022,8 50 0,0
16.01.2021 01:00:00 -4,5 -6,3 29 16 38 21 N 1023,3 50 0,0
16.01.2021 00:00:00 -4,9 -6,6 27 14 38 20 N 1023,4 50 0,0
15.01.2021 23:00:00 -4,9 -6,9 32 17 41 22 N 1023,7 50 0,0
15.01.2021 22:00:00 -5,0 -7,4 29 16 37 20 N 1023,8 50 0,0
15.01.2021 21:00:00 -6,3 -9,2 29 16 38 20 N 1023,8 50 0,0
15.01.2021 20:00:00 -5,8 -8,4 32 17 45 24 N 1023,5 50 0,0
15.01.2021 19:00:00 -5,3 -7,6 36 20 45 24 N 1023,5 50 0,0
15.01.2021 18:00:00 -5,3 -7,4 31 17 45 25 N 1023,6 50 0,0
15.01.2021 17:00:00 -4,3 -6,9 31 17 45 24 N 1023,3 50 0,0
15.01.2021 16:00:00 -5,3 -8,6 26 14 35 19 N 1023,2 50 0,0
15.01.2021 15:00:00 -4,5 -7,8 28 15 45 24 N 1022,8 50 0,0
15.01.2021 14:00:00 -3,6 -6,4 35 19 46 25 N 1022,8 50 0,0
15.01.2021 13:00:00 -3,8 -6,7 35 19 46 25 N 1022,7 50 0,0
15.01.2021 12:00:00 -4,0 -7,1 30 16 44 24 N 1022,7 45 0,0
15.01.2021 11:00:00 -4,5 -7,8 32 17 45 25 N 1022,7 47 0,0
15.01.2021 10:00:00 -4,4 -7,1 35 19 45 25 N 1022,2 50 0,0
15.01.2021 09:00:00 -5,3 -7,6 29 16 41 22 N 1022,0 50 0,0
15.01.2021 08:00:00 -5,2 -6,9 30 16 46 25 N 1021,4 50 0,0
15.01.2021 07:00:00 -4,9 -6,6 32 17 42 23 N 1021,2 50 0,0
15.01.2021 06:00:00 -5,5 -7,2 30 16 38 21 N 1021,1 50 0,0
15.01.2021 05:00:00 -5,3 -7,1 29 16 44 24 N 1020,9 50 0,0
15.01.2021 04:00:00 -4,6 -6,9 34 18 47 26 N 1020,8 50 0,0
15.01.2021 03:00:00 -3,5 -6,0 37 20 50 27 N 1020,8 50 0,0
15.01.2021 02:00:00 -2,8 -5,4 36 19 48 26 N 1020,8 50 0,0
15.01.2021 01:00:00 -2,2 -4,7 32 17 45 24 N 1020,8 50 0,0
15.01.2021 00:00:00 -2,7 -5,3 32 17 47 25 N 1020,7 36 0,0
14.01.2021 23:00:00 -1,7 -4,0 36 19 47 25 N 1020,4 50 -

tt = temperatuur
td = dauwpunt
ff = windsnelheid
fx = windstoten
dd = windrichting
ppp = luchtdruk
vv = zicht
rr = neerslag

Weerstations in de omgeving